KM6ZMV Weather Reports


time (UTC)temp
C
wind
direction
speed
KPH
gust
KPH
rain 1hr
cm
rain 24hr
cm
rain mn
cm
humidity
%
barometer
mb
20260505172007 13 186 3.2 6.4 0.00 0.00 0.00 76 1015.7
20260505171510 14 180 1.6 8.0 0.00 0.00 0.00 77 1015.6
20260505171004 13 176 3.2 8.0 0.00 0.00 0.00 77 1015.6
20260505170504 13 188 3.2 11.3 0.00 0.00 0.00 77 1015.6
20260505170015 13 169 6.4 11.3 0.00 0.00 0.00 77 1015.6
20260505165506 13 175 1.6 9.7 0.00 0.00 0.00 77 1015.6
20260505165004 13 228 1.6 9.7 0.00 0.00 0.00 78 1015.5
20260505164510 13 180 4.8 9.7 0.00 0.00 0.00 77 1015.6
20260505164004 13 248 3.2 8.0 0.00 0.00 0.00 78 1015.5
20260505163504 13 182 4.8 8.0 0.00 0.00 0.00 78 1015.4
20260505163012 13 246 1.6 8.0 0.00 0.00 0.00 77 1015.5
20260505162504 13 226 1.6 6.4 0.00 0.00 0.00 78 1015.4
20260505162008 13 267 0.0 3.2 0.00 0.00 0.00 79 1015.4
20260505161513 13 275 0.0 6.4 0.00 0.00 0.00 79 1015.3
20260505161003 13 329 0.0 6.4 0.00 0.00 0.00 79 1015.4
20260505160510 13 234 0.0 6.4 0.00 0.00 0.00 80 1015.3
20260505153013 12 225 0.0 4.8 0.00 0.00 0.00 82 1015.3
20260505152506 12 275 0.0 4.8 0.00 0.00 0.00 82 1015.2
20260505152008 12 240 1.6 8.0 0.00 0.00 0.00 82 1015.1
20260505151515 12 242 3.2 8.0 0.00 0.00 0.00 82 1015.2
20260505151007 12 250 1.6 4.8 0.00 0.00 0.00 82 1015.2
20260505150510 12 242 1.6 8.0 0.00 0.00 0.00 82 1015.2
20260505140506 12 217 0.0 4.8 0.00 0.00 0.00 83 1014.5
20260505125008 12 186 1.6 4.8 0.00 0.00 0.00 83 1014.2
20260505124520 12 229 0.0 4.8 0.00 0.00 0.00 83 1014.2
20260505124006 12 183 1.6 6.4 0.00 0.00 0.00 83 1014.2
20260505123506 12 200 3.2 8.0 0.00 0.00 0.00 83 1014.1
20260505123019 12 177 3.2 8.0 0.00 0.00 0.00 83 1014.1
20260505122507 12 207 1.6 6.4 0.00 0.00 0.00 83 1014.2
20260505122007 12 162 1.6 6.4 0.00 0.00 0.00 82 1014.2
20260505121515 12 194 0.0 3.2 0.00 0.00 0.00 83 1014.2
20260505121005 12 207 0.0 3.2 0.00 0.00 0.00 83 1014.2
20260505120506 12 181 0.0 4.8 0.00 0.00 0.00 83 1014.1
20260505120013 12 261 1.6 6.4 0.00 0.00 0.00 83 1014.2
20260505115502 12 218 0.0 6.4 0.00 0.00 0.00 83 1014.2
20260505115003 12 186 1.6 6.4 0.00 0.00 0.00 83 1014.1
20260505114505 12 208 3.2 8.0 0.00 0.00 0.00 83 1014.2
20260505114004 12 196 3.2 8.0 0.00 0.00 0.00 83 1014.1
20260505113505 12 213 1.6 4.8 0.00 0.00 0.00 83 1014.1
20260505113010 12 207 1.6 3.2 0.00 0.00 0.00 82 1014.1
20260505112504 12 188 0.0 4.8 0.00 0.00 0.00 83 1014.0
20260505112003 12 160 0.0 4.8 0.00 0.00 0.00 83 1013.9
20260505111512 12 180 0.0 3.2 0.00 0.00 0.00 82 1013.9
20260505111006 12 205 0.0 3.2 0.00 0.00 0.00 82 1013.9
20260505110507 12 238 0.0 3.2 0.00 0.00 0.00 82 1013.8
20260505102008 12 169 0.0 3.2 0.00 0.00 0.00 82 1013.5
20260505101520 12 148 0.0 3.2 0.00 0.00 0.00 82 1013.4
20260505101004 12 95 1.6 3.2 0.00 0.00 0.00 82 1013.5
20260505100504 12 219 1.6 6.4 0.00 0.00 0.00 82 1013.5
20260505100021 12 194 1.6 6.4 0.00 0.00 0.00 82 1013.5
20260505095505 12 184 0.0 6.4 0.00 0.00 0.00 81 1013.5
20260505095008 12 151 0.0 6.4 0.00 0.00 0.00 81 1013.5
20260505094523 12 188 1.6 6.4 0.00 0.00 0.00 81 1013.5
20260505094007 12 131 1.6 6.4 0.00 0.00 0.00 81 1013.4
20260505093503 12 205 1.6 6.4 0.00 0.00 0.00 81 1013.3
20260505093006 12 171 1.6 8.0 0.00 0.00 0.00 81 1013.4
20260505092504 12 181 3.2 8.0 0.00 0.00 0.00 80 1013.3
20260505092004 12 150 0.0 11.3 0.00 0.00 0.00 80 1013.3
20260505091522 12 173 4.8 11.3 0.00 0.00 0.00 80 1013.3
20260505091003 12 194 0.0 8.0 0.00 0.00 0.00 79 1013.3
20260505090504 12 174 3.2 8.0 0.00 0.00 0.00 79 1013.2
20260505090035 12 171 1.6 4.8 0.00 0.00 0.00 79 1013.1
20260505085510 13 202 1.6 6.4 0.00 0.00 0.00 79 1013.1
20260505085006 13 250 1.6 6.4 0.00 0.00 0.00 79 1013.2
20260505084518 13 250 0.0 6.4 0.00 0.00 0.00 79 1013.2
20260505084013 13 194 3.2 6.4 0.00 0.00 0.00 78 1013.1
20260505083512 13 195 0.0 4.8 0.00 0.00 0.00 78 1013.2
20260505083026 13 207 1.6 4.8 0.00 0.00 0.00 78 1013.2
20260505082503 13 242 0.0 6.4 0.00 0.00 0.00 78 1013.0
20260505082004 13 226 0.0 6.4 0.00 0.00 0.00 77 1012.9
20260505081511 13 225 0.0 3.2 0.00 0.00 0.00 77 1012.9
20260505081003 13 234 0.0 6.4 0.00 0.00 0.00 77 1012.9
20260505080507 13 223 0.0 6.4 0.00 0.00 0.00 77 1012.9
20260505080009 13 178 0.0 3.2 0.00 0.00 0.00 77 1012.9
20260505075503 13 188 0.0 3.2 0.00 0.00 0.00 77 1012.9
20260505075004 13 277 0.0 3.2 0.00 0.00 0.00 77 1012.9
20260505074517 13 246 0.0 4.8 0.00 0.00 0.00 76 1012.8
20260505074006 14 224 0.0 4.8 0.00 0.00 0.00 77 1012.7
20260505073507 14 252 1.6 3.2 0.00 0.00 0.00 76 1012.7
20260505073039 14 248 0.0 1.6 0.00 0.00 0.00 76 1012.6
20260505072506 14 256 0.0 3.2 0.00 0.00 0.00 76 1012.6
20260505072007 14 234 0.0 4.8 0.00 0.00 0.00 76 1012.4
20260505071515 14 246 0.0 6.4 0.00 0.00 0.00 75 1012.3
20260505071003 15 248 3.2 6.4 0.00 0.00 0.00 75 1012.3
20260505070505 15 296 1.6 4.8 0.00 0.00 0.00 75 1012.3
20260505070009 15 237 1.6 6.4 0.00 0.00 0.00 75 1012.3
20260505065503 15 192 1.6 8.0 0.00 0.00 0.00 75 1012.3
20260505065004 15 199 0.0 8.0 0.00 0.00 0.00 75 1012.1
20260505064531 15 229 1.6 8.0 0.00 0.00 0.00 75 1012.0
20260505064004 15 228 0.0 8.0 0.00 0.00 0.00 76 1012.0
20260505063504 15 208 3.2 8.0 0.00 0.00 0.00 76 1011.8
20260505063022 15 188 0.0 3.2 0.00 0.00 0.00 77 1011.8
20260505062508 15 347 0.0 0.0 0.00 0.00 0.00 76 1011.7
20260505062011 15 347 0.0 1.6 0.00 0.00 0.00 76 1011.6
20260505061535 15 347 0.0 1.6 0.00 0.00 0.00 75 1011.5
20260505061009 15 347 0.0 3.2 0.00 0.00 0.00 75 1011.5
20260505060503 15 338 0.0 3.2 0.00 0.00 0.00 74 1011.4
20260505060008 15 329 0.0 3.2 0.00 0.00 0.00 74 1011.4
20260505055503 16 338 0.0 3.2 0.00 0.00 0.00 74 1011.4
20260505055003 16 324 0.0 4.8 0.00 0.00 0.00 73 1011.4
20260505054514 16 301 1.6 4.8 0.00 0.00 0.00 73 1011.4
20260505054012 16 283 1.6 6.4 0.00 0.00 0.00 72 1011.4
20260505053507 16 284 0.0 6.4 0.00 0.00 0.00 72 1011.3
20260505053018 16 9 3.2 6.4 0.00 0.00 0.00 71 1011.3
20260505052508 16 9 1.6 4.8 0.00 0.00 0.00 71 1011.3
20260505052004 17 319 0.0 4.8 0.00 0.00 0.00 70 1011.3
20260505051522 17 322 1.6 4.8 0.00 0.00 0.00 70 1011.2
20260505051014 17 306 1.6 6.4 0.00 0.00 0.00 69 1011.2
20260505050506 17 350 1.6 6.4 0.00 0.00 0.00 1011.2
20260505041519 18 322 1.6 6.4 0.00 0.00 0.00 66 1010.4
20260505041007 19 325 3.2 6.4 0.00 0.00 0.00 66 1010.4
20260505040506 19 272 1.6 4.8 0.00 0.00 0.00 66 1010.4
20260505040024 19 296 1.6 6.4 0.00 0.00 0.00 67 1010.3
20260505035507 20 237 1.6 9.7 0.00 0.00 0.00 67 1010.2
20260505035007 20 243 3.2 9.7 0.00 0.00 0.00 67 1010.1
20260505034527 20 223 0.0 8.0 0.00 0.00 0.00 68 1010.0
20260505034009 20 205 3.2 8.0 0.00 0.00 0.00 67 1009.8
20260505033503 20 180 3.2 11.3 0.00 0.00 0.00 67 1009.8
20260505033020 20 194 4.8 14.5 0.00 0.00 0.00 67 1009.7
20260505032505 20 185 4.8 14.5 0.00 0.00 0.00 67 1009.7
20260505032006 20 164 4.8 12.9 0.00 0.00 0.00 67 1009.4
20260505031537 20 184 4.8 11.3 0.00 0.00 0.00 66 1009.4
20260505031007 20 178 3.2 12.9 0.00 0.00 0.00 66 1009.4
20260505030507 21 178 3.2 12.9 0.00 0.00 0.00 66 1009.3
20260505030003 21 179 8.0 12.9 0.00 0.00 0.00 65 1009.3
20260505025504 21 226 1.6 11.3 0.00 0.00 0.00 65 1009.3
20260505025004 21 148 4.8 11.3 0.00 0.00 0.00 65 1009.3
20260505024510 21 222 3.2 9.7 0.00 0.00 0.00 65 1009.2
20260505024003 21 191 3.2 11.3 0.00 0.00 0.00 64 1009.2
20260505023503 21 181 4.8 11.3 0.00 0.00 0.00 64 1009.2
20260505023012 21 204 4.8 14.5 0.00 0.00 0.00 64 1009.1
20260505022503 21 174 6.4 17.7 0.00 0.00 0.00 63 1009.1
20260505022007 21 184 8.0 17.7 0.00 0.00 0.00 63 1009.0
20260505021520 21 190 6.4 16.1 0.00 0.00 0.00 62 1008.9
20260505021011 22 144 1.6 9.7 0.00 0.00 0.00 62 1008.9
20260505020507 22 187 3.2 12.9 0.00 0.00 0.00 62 1009.0
20260505020028 22 180 6.4 14.5 0.00 0.00 0.00 62 1009.0
20260505015508 22 233 6.4 17.7 0.00 0.00 0.00 62 1009.0
20260505015004 22 175 8.0 17.7 0.00 0.00 0.00 61 1009.0
20260505014506 22 180 4.8 16.1 0.00 0.00 0.00 61 1008.9
20260505014003 22 206 4.8 19.3 0.00 0.00 0.00 61 1009.0
20260505013504 22 183 6.4 19.3 0.00 0.00 0.00 61 1009.1
20260505013010 22 215 11.3 17.7 0.00 0.00 0.00 60 1009.3
20260505012503 22 162 4.8 17.7 0.00 0.00 0.00 60 1009.1
20260505012006 22 173 3.2 17.7 0.00 0.00 0.00 60 1009.2
20260505011528 22 177 9.7 17.7 0.00 0.00 0.00 59 1009.3
20260505011005 22 177 9.7 14.5 0.00 0.00 0.00 59 1009.4
20260505010513 22 178 3.2 17.7 0.00 0.00 0.00 59 1009.4
20260505010018 22 169 4.8 17.7 0.00 0.00 0.00 59 1009.4
20260505005508 22 212 6.4 12.9 0.00 0.00 0.00 59 1009.4
20260505005008 22 207 6.4 17.7 0.00 0.00 0.00 58 1009.5
20260505004541 22 195 8.0 17.7 0.00 0.00 0.00 58 1009.6
20260505004003 22 234 8.0 17.7 0.00 0.00 0.00 58 1009.5
20260505003503 23 165 6.4 16.1 0.00 0.00 0.00 57 1009.5
20260505003009 23 181 6.4 16.1 0.00 0.00 0.00 58 1009.4
20260505002505 22 142 6.4 16.1 0.00 0.00 0.00 57 1009.6
20260505002003 22 219 6.4 17.7 0.00 0.00 0.00 58 1009.6
20260505001515 23 167 6.4 17.7 0.00 0.00 0.00 58 1009.7
20260505001010 22 165 9.7 17.7 0.00 0.00 0.00 57 1009.6
20260505000506 23 182 9.7 16.1 0.00 0.00 0.00 56 1009.7
20260505000035 23 196 3.2 16.1 0.00 0.00 0.00 56 1009.7
20260504235508 23 128 1.6 17.7 0.00 0.00 0.00 57 1009.7
20260504235008 23 232 9.7 17.7 0.00 0.00 0.00 56 1009.7
20260504234524 23 196 9.7 17.7 0.00 0.00 0.00 56 1009.7
20260504234007 23 139 9.7 16.1 0.00 0.00 0.00 55 1009.7
20260504233513 23 190 9.7 16.1 0.00 0.00 0.00 54 1009.7
20260504233008 23 196 4.8 17.7 0.00 0.00 0.00 56 1009.8
20260504232505 23 189 9.7 19.3 0.00 0.00 0.00 55 1009.8
20260504232003 23 207 6.4 19.3 0.00 0.00 0.00 54 1009.9
20260504231511 22 199 6.4 17.7 0.00 0.00 0.00 56 1009.9
20260504231003 22 183 8.0 17.7 0.00 0.00 0.00 55 1010.0
20260504230506 23 295 6.4 14.5 0.00 0.00 0.00 54 1010.1
20260504230019 23 148 3.2 14.5 0.00 0.00 0.00 56 1010.1
20260504225508 22 184 8.0 12.9 0.00 0.00 0.00 55 1010.2
20260504225010 22 237 4.8 14.5 0.00 0.00 0.00 56 1010.3
20260504224520 22 177 6.4 16.1 0.00 0.00 0.00 55 1010.2
20260504224011 22 254 6.4 16.1 0.00 0.00 0.00 56 1010.3
20260504223507 22 175 6.4 14.5 0.00 0.00 0.00 54 1010.4
20260504223026 22 250 3.2 12.9 0.00 0.00 0.00 56 1010.4
20260504222508 22 242 3.2 11.3 0.00 0.00 0.00 55 1010.7
20260504222003 22 150 4.8 9.7 0.00 0.00 0.00 56 1010.6
20260504221513 21 234 1.6 12.9 0.00 0.00 0.00 56 1010.8
20260504221005 22 193 3.2 12.9 0.00 0.00 0.00 56 1010.9
20260504220503 21 202 3.2 12.9 0.00 0.00 0.00 57 1010.8
20260504220015 21 195 3.2 9.7 0.00 0.00 0.00 57 1010.8
20260504215507 21 163 4.8 16.1 0.00 0.00 0.00 58 1010.8
20260504215008 21 169 6.4 16.1 0.00 0.00 0.00 58 1010.9
20260504214520 21 146 3.2 12.9 0.00 0.00 0.00 60 1011.0
20260504214009 21 152 3.2 12.9 0.00 0.00 0.00 58 1011.0
20260504213506 21 181 6.4 16.1 0.00 0.00 0.00 59 1011.0
20260504213024 21 194 8.0 14.5 0.00 0.00 0.00 60 1011.1
20260504212507 21 122 4.8 17.7 0.00 0.00 0.00 59 1011.2
20260504212012 20 169 8.0 17.7 0.00 0.00 0.00 60 1011.3
20260504211507 20 171 4.8 16.1 0.00 0.00 0.00 61 1011.3
20260504211005 20 259 8.0 16.1 0.00 0.00 0.00 60 1011.4
20260504210502 20 247 3.2 11.3 0.00 0.00 0.00 61 1011.5
20260504210021 20 245 3.2 11.3 0.00 0.00 0.00 61 1011.6
20260504205504 20 231 3.2 14.5 0.00 0.00 0.00 63 1011.7
20260504205008 20 171 1.6 14.5 0.00 0.00 0.00 63 1011.8
20260504204519 19 193 6.4 16.1 0.00 0.00 0.00 64 1011.9
20260504204005 19 180 6.4 16.1 0.00 0.00 0.00 64 1012.0
20260504203509 19 167 6.4 16.1 0.00 0.00 0.00 61 1012.0
20260504203029 19 202 1.6 12.9 0.00 0.00 0.00 65 1012.1
20260504202506 18 273 6.4 16.1 0.00 0.00 0.00 63 1012.1
20260504202003 19 193 6.4 16.1 0.00 0.00 0.00 63 1012.2
20260504201508 18 205 1.6 14.5 0.00 0.00 0.00 65 1012.2
20260504201003 18 202 6.4 14.5 0.00 0.00 0.00 64 1012.2
20260504200506 18 168 4.8 12.9 0.00 0.00 0.00 66 1012.3
20260504200012 17 219 3.2 12.9 0.00 0.00 0.00 66 1012.2
20260504195502 18 167 6.4 12.9 0.00 0.00 0.00 64 1012.3
20260504195007 18 246 4.8 14.5 0.00 0.00 0.00 67 1012.3
20260504194515 18 165 4.8 14.5 0.00 0.00 0.00 68 1012.4
20260504194004 17 164 6.4 14.5 0.00 0.00 0.00 67 1012.3
20260504193508 17 270 3.2 11.3 0.00 0.00 0.00 68 1012.4
20260504193024 17 213 3.2 12.9 0.00 0.00 0.00 70 1012.5
20260504192508 17 228 6.4 14.5 0.00 0.00 0.00 68 1012.4
20260504192010 17 243 8.0 14.5 0.00 0.00 0.00 68 1012.5
20260504191508 17 182 3.2 19.3 0.00 0.00 0.00 71 1012.6
20260504191003 16 204 6.4 19.3 0.00 0.00 0.00 70 1012.7
20260504190506 16 157 6.4 12.9 0.00 0.00 0.00 71 1012.7
20260504190012 16 243 3.2 12.9 0.00 0.00 0.00 70 1012.8
20260504185504 17 220 4.8 14.5 0.00 0.00 0.00 69 1012.8
20260504185006 16 251 6.4 16.1 0.00 0.00 0.00 72 1012.9
20260504184515 16 167 3.2 16.1 0.00 0.00 0.00 73 1012.9
20260504184007 16 187 9.7 16.1 0.00 0.00 0.00 74 1012.9
20260504183506 15 259 4.8 11.3 0.00 0.00 0.00 74 1012.8
20260504183020 15 250 3.2 17.7 0.00 0.00 0.00 74 1012.8
20260504182507 15 189 8.0 17.7 0.00 0.00 0.00 73 1012.8
20260504182011 15 211 9.7 17.7 0.00 0.00 0.00 73 1012.8
20260504181529 15 233 4.8 14.5 0.00 0.00 0.00 74 1012.7
20260504181010 15 219 4.8 14.5 0.00 0.00 0.00 75 1012.7
20260504180504 15 193 4.8 14.5 0.00 0.00 0.00 75 1012.8
20260504180010 15 241 3.2 14.5 0.00 0.00 0.00 77 1012.7
20260504175507 15 211 3.2 14.5 0.00 0.00 0.00 77 1012.6
20260504175004 14 234 4.8 14.5 0.00 0.00 0.00 76 1012.6
20260504174514 14 152 6.4 14.5 0.00 0.00 0.00 77 1012.7
20260504174006 14 157 6.4 12.9 0.00 0.00 0.00 77 1012.7
20260504173507 14 233 3.2 9.7 0.00 0.00 0.00 77 1012.6
20260504173019 14 231 1.6 16.1 0.00 0.00 0.00 77 1012.6
20260504172505 14 190 1.6 16.1 0.00 0.00 0.00 78 1012.5